User: anonymous   Login
Location: Newark
(42.8481°N, 0.4872°E)
Time: 13:52:38
(UTC+00:00)
Language:

Explorer 11/Cluster Stage 4 - Orbit

View from above orbital plane
View from above orbital plane
View from above satellite
View from above satellite

Ground track
Ground track

The orbit data is extracted from the following two-line orbital elements,

1   107U 61013A   20304.83447781 +.00000383 +00000-0 +28632-4 0  9999
2   107 028.7899 136.8204 0546512 257.3761 096.5187 14.09038584985337
Epoch (UTC): 30 October 2020 20:01:38
Eccentricity: 0.0546512
inclination: 28.7899°
perigee height: 467 km
apogee height: 1258 km
right ascension of ascending node: 136.8204°
argument of perigee: 257.3761°
revolutions per day: 14.09038584
mean anomaly at epoch: 96.5187°
orbit number at epoch: 98533

The dashed part of the orbit path shows where the satellite is in the earth's shadow,  

DLR